Dubuque, IA

7:24 AM CST on November 17, 2019 (GMT -0600)
Dubuque Regional

Weather History for KDBQ - September, 2019

Change the Weather History Date:

Wednesday, September 18, 2019

  Actual Average Record
Temperature  
Mean Temperature 72 °F 61 °F  
Max Temperature 81 °F 72 °F 90 °F (1955)
Min Temperature 63 °F 51 °F 35 °F (1903)
Degree Days  
Heating Degree Days 0 6  
Month to date heating degree days 24 60  
Since 1 July heating degree days 33 87  
Cooling Degree Days 7 2  
Month to date cooling degree days 61 49  
Year to date cooling degree days 634 625  
Growing Degree Days 22 (Base 50)    
Moisture  
Dew Point 67 °F    
Average Humidity 86    
Maximum Humidity 100    
Minimum Humidity 69    
Precipitation  
Precipitation T in 0.12 in 3.31 in (1874)
Month to date precipitation 8.34 2.12  
Year to date precipitation 39.47 28.10  
Snow  
Snow 0.00 in 0.00 in - ()
Month to date snowfall 0.0 0.0  
Since 1 July snowfall 0.0 0.0  
Since 1 September snowfall 0.0 0.0  
Snow Depth 0.00 in    
Sea Level Pressure  
Sea Level Pressure 30.04 in    
Wind  
Wind Speed 9 mph ()    
Max Wind Speed 16 mph    
Max Gust Speed 23 mph    
Visibility 8.4 miles    
Events      
T = Trace of Precipitation, MM = Missing Value Source: Averaged Metar Reports

Daily Weather History Graph

Daily Weather History Graph

Search for Another Location

Airport or City:

Astronomy

Sep. 18, 2019 Rise Set
Actual Time 6:45 AM CDT 7:07 PM CDT
Civil Twilight 6:17 AM CDT 7:35 PM CDT
Nautical Twilight 5:44 AM CDT 8:08 PM CDT
Astronomical Twilight 5:10 AM CDT 8:42 PM CDT
Moon 9:36 PM CDT (9/18) 10:53 AM CDT (9/18)
Length of Visible Light 13h 18m
Length of Day
12h 21m
Waning Gibbous, 82% of the Moon is Illuminated
Sep 18
Waning Gibbous
Sep 21
Last Quarter
Sep 28
New
Oct 5
First Quarter
Oct 13
Full

Hourly Weather History & Observations

Time (CDT) Temp. Heat Index Dew Point Humidity Pressure Visibility Wind Dir Wind Speed Gust Speed Precip Events Conditions
12:53 AM 68.0 °F - 64.9 °F 90% 30.06 in 9.0 mi SSE 12.7 mph - N/A   Clear
1:53 AM 66.0 °F - 64.0 °F 93% 30.07 in 7.0 mi SSE 10.4 mph - N/A   Clear
2:53 AM 64.9 °F - 64.0 °F 97% 30.05 in 6.0 mi SSE 11.5 mph - N/A   Clear
3:53 AM 64.9 °F - 64.0 °F 97% 30.05 in 5.0 mi SSE 12.7 mph - N/A   Clear
4:53 AM 64.0 °F - 63.0 °F 96% 30.05 in 5.0 mi South 9.2 mph - N/A   Clear
5:53 AM 63.0 °F - 62.1 °F 97% 30.04 in 4.0 mi South 9.2 mph - N/A   Clear
6:53 AM 63.0 °F - 62.1 °F 97% 30.04 in 4.0 mi South 9.2 mph - N/A   Clear
7:53 AM 64.0 °F - 63.0 °F 96% 30.06 in 4.0 mi South 8.1 mph - N/A   Clear
8:53 AM 66.9 °F - 64.0 °F 90% 30.07 in 7.0 mi South 12.7 mph - N/A   Clear
9:53 AM 71.1 °F - 64.9 °F 81% 30.08 in 10.0 mi SSE 9.2 mph - N/A   Clear
10:53 AM 73.9 °F - 66.9 °F 79% 30.09 in 10.0 mi South 11.5 mph - N/A   Clear
11:53 AM 78.1 °F - 69.1 °F 74% 30.08 in 10.0 mi SSE 9.2 mph - N/A   Clear
12:53 PM 80.1 °F 83.2 °F 70.0 °F 71% 30.06 in 10.0 mi SSE 8.1 mph - N/A   Clear
1:53 PM 80.1 °F 83.2 °F 70.0 °F 71% 30.05 in 10.0 mi SSE 10.4 mph 17.3 mph N/A   Clear
2:53 PM 81.0 °F 84.4 °F 70.0 °F 69% 30.03 in 10.0 mi SSE 12.7 mph - N/A   Partly Cloudy
3:53 PM 81.0 °F 84.9 °F 71.1 °F 72% 30.02 in 10.0 mi South 9.2 mph - N/A   Clear
4:53 PM 79.0 °F - 71.1 °F 77% 29.98 in 10.0 mi South 12.7 mph - N/A   Clear
5:53 PM 77.0 °F - 70.0 °F 79% 29.97 in 10.0 mi SSE 11.5 mph - N/A   Partly Cloudy
6:53 PM 75.0 °F - 70.0 °F 84% 29.98 in 10.0 mi SSE 10.4 mph - 0.00 in   Clear
7:53 PM 73.0 °F - 70.0 °F 90% 30.01 in 10.0 mi South 5.8 mph - N/A   Clear
8:53 PM 73.0 °F - 69.1 °F 87% 30.01 in 10.0 mi SSE 9.2 mph - N/A   Clear
9:53 PM 72.0 °F - 69.1 °F 91% 30.02 in 10.0 mi SSE 8.1 mph - N/A   Clear
10:53 PM 72.0 °F - 69.1 °F 91% 30.02 in 10.0 mi SSE 8.1 mph - N/A   Clear
11:53 PM 71.1 °F - 68.0 °F 90% 30.01 in 10.0 mi SSE 11.5 mph - N/A   Clear